ONEWEB-0554, 56056

Orbit data source: Space-Track

ONEWEB-0554, 56056 is a payload satellite owned by One Web (NAA) (UK) in LEO that was launched on Sun, 26 Mar 2023 UTC via a LVM3 launch vehicle from the Sirharikota (SRI). Payload-class satellites include a variety of spacecraft equipped with specific instruments for various scientific and technological missions. These include communications satellites like Starlink; space stations such as the ISS; scientific satellites like the Hubble; Earth observation satellites from companies like Planet Labs, Umbra, and HawkEye 360; GPS; miniature CubeSats for education and research; and military/defense satellites.

Loading next visibility...
Identifier
56056, 2023-043L
Orbit
LEO
Country
Flag of UKUK
Related business
Manufacturer
One Web
Mission
Operational Commercial Communications
Bus & Motor
ARROW, Unknown motor
Mass
148 kg wet, ~140 kg dry
Launch date (UTC)
2023-03-26 (2 years ago)
Launch vehicle
LVM3
Launch site
Sirharikota (SRI)
Object type
Payload
Rocket body
Debris
Shape & HBR
Trap Box + 2 Pan, 2.5 m
Radar Cross Section
2.032 m², Large (>1 m²)

Expand to show TLE details & history
Last TLE update: 17 hours ago

TLE from 17 hours ago
0 ONEWEB-0554
1 56056U 23043L   25249.16862888  .00000154  00000-0  36921-3 0  9997
2 56056  87.8986 285.4090 0002093  88.3735 271.7636 13.16593277121589
Epoch: 2025-09-06T04:02Z
TLE epoch observation values (Epoch: 2025-09-06T04:02:49.535Z)
Latitude
0.00003°
Longitude
-120.80372°
Altitude
1,200.609 km
Speed
7.254 km/s
True Right ascension
19h 01m 38s
True Declination
0° 00' 00"
Sunlit
Object was in daylight at epoch
Visualization orbit readout
Latitude
Unknown
Longitude
Unknown
Altitude
Unknown
Speed
Unknown
Apparent Right ascension
Unknown
Apparent Declination
Unknown
Sunlit
N/A
Visualization observer readout
Local Sidereal Time
13:01:03
Azimuth
Unknown
Elevation
Unknown
Doppler factor
Unknown
Orbital elements
Apogee altitude
1,196.456 km
Perigee altitude
1,193.286 km
Semi-major axis
7,573.008 km
Eccentricity
0.00021
Inclination
87.8986°
RAAN
285.409°
Arg. of periapsis
88.3735°
True anomaly
271.73963°
Mean anomaly
271.7636°
Eccentric anomaly
271.75161°
Mean motion
3.29337 °/min
Orbital period
109.31 mins
BSTAR
0.00036921
Loading maneuver chart data...
Computing Atmospheric mass density...
Loading historical data...
Loading historical data...
Loading historical data...
Loading historical data...
Loading historical data...
Loading historical data...
Loading historical data...

Documentation

Showing up to 5 results
|